GFSNIL_con_lsi_027.txt.gz
Lid_Strength_Index
0 1 1 0 0 0 0 -0 -1 -0 -1 -1 -1 -1 -1 -0 -0 -0 0 -0 -0 0
0 0 1 0 0 0 -0 -0 -1 -1 -0 -0 -1 -1 -1 -0 0 -0 -0 -0 -0 0
1 0 0 0 0 0 -0 -0 -1 -0 -0 -0 -0 -1 -0 -0 -0 0 0 0 0 -0
1 1 0 0 0 0 -0 -0 -0 -0 -0 -0 -0 -0 -0 -0 -0 0 0 -0 0 0
1 1 1 1 0 0 0 -0 -0 -0 0 0 0 -0 0 0 0 0 1 1 0 0
1 1 1 1 1 0 0 0 0 0 0 0 0 0 0 0 0 0 0 0 1 0
1 1 1 1 1 0 0 0 0 0 0 0 0 0 0 0 0 0 0 0 0 0
1 1 1 1 1 0 0 0 0 0 0 0 0 0 0 0 0 1 1 0 0 0
1 1 1 1 1 1 1 1 1 1 1 1 1 3 4 1 1 1 1 1 1 -0
1 1 1 1 1 1 1 1 1 1 1 1 1 5 5 4 0 1 1 1 1 1
1 2 1 1 1 1 1 1 1 1 1 1 1 5 7 5 0 1 1 0 1 1
1 2 2 2 2 1 1 1 1 1 1 1 1 7 8 6 1 1 1 1 0 0
1 1 2 2 2 1 1 1 1 1 1 2 1 6 9 7 1 1 1 1 0 4
1 1 1 1 1 1 1 1 1 1 1 1 1 1 10 10 1 1 2 2 1 1

GFSNIL_con_lsi_030.txt.gz
Lid_Strength_Index
1 1 1 1 1 1 1 1 0 0 -0 -0 -0 -0 -0 0 0 0 0 1 1 1
1 1 1 1 0 1 0 0 0 0 0 0 -0 -0 -0 0 1 0 0 0 0 1
1 1 1 1 1 1 0 0 -0 0 0 0 0 -0 0 0 0 1 1 0 1 1
1 1 1 1 1 1 0 0 0 0 0 0 0 0 0 1 1 1 1 1 1 1
1 1 1 1 1 0 1 0 0 0 0 1 0 0 1 1 1 1 1 1 1 1
1 1 1 1 1 1 1 1 0 0 1 1 1 1 1 1 1 1 1 1 1 1
2 1 1 1 1 1 1 1 1 1 1 1 1 1 1 1 1 1 1 1 1 1
1 1 1 1 1 1 1 1 1 1 1 1 1 1 1 1 1 1 1 1 1 0
1 1 1 1 1 1 1 1 1 1 1 1 1 3 4 1 1 1 1 1 1 0
2 2 2 1 1 1 1 1 1 1 1 1 1 5 6 4 1 1 1 1 1 1
2 2 2 2 2 2 1 2 2 1 1 1 1 6 7 6 1 1 1 1 1 1
2 2 2 2 2 2 2 2 2 1 1 1 1 7 8 7 1 1 1 1 1 1
1 2 2 2 2 1 1 2 1 2 1 2 1 6 10 8 1 2 2 1 1 5
1 2 2 2 1 2 2 2 2 2 1 1 1 1 10 11 1 2 2 2 2 1

GFSNIL_con_lsi_033.txt.gz
Lid_Strength_Index
1 1 1 1 2 1 2 1 0 0 0 0 0 0 1 0 1 1 1 1 1 1
1 1 2 1 1 2 1 1 1 0 0 0 0 0 0 1 1 1 1 1 1 1
1 1 1 1 1 1 1 1 1 0 0 0 0 0 0 1 1 1 1 1 1 1
1 1 1 1 1 1 1 1 1 1 1 1 1 0 1 1 1 1 1 1 1 1
1 1 1 1 1 1 1 1 1 1 1 1 1 1 1 1 1 1 1 1 2 2
2 1 1 1 1 1 1 1 1 1 1 1 1 1 1 1 1 1 1 1 1 1
2 2 1 1 1 1 1 1 1 1 1 1 1 1 1 1 1 1 1 1 1 1
2 1 1 1 1 1 1 1 1 1 1 1 1 1 1 1 1 1 1 1 1 1
2 2 2 1 1 1 1 1 1 1 1 1 1 3 4 1 1 1 1 2 1 1
2 2 2 1 2 2 2 1 1 1 1 1 1 5 6 5 1 1 1 1 1 1
2 2 2 2 2 2 2 2 2 2 1 1 1 6 7 6 2 1 1 1 1 1
2 2 2 2 2 2 2 2 2 1 1 2 1 8 8 7 3 2 1 1 1 1
2 2 2 2 2 2 2 2 1 2 1 3 1 7 9 8 2 2 2 1 1 5
2 2 2 2 2 2 2 2 2 2 1 1 2 2 10 11 2 2 2 2 2 1

GFSNIL_con_lsi_039.txt.gz
Lid_Strength_Index
1 1 1 1 2 2 2 1 0 0 1 1 1 1 1 2 2 1 2 2 3 2
1 1 1 1 1 1 2 1 1 0 0 0 0 1 2 2 2 1 2 2 2 3
1 1 1 1 2 2 2 1 0 0 0 0 0 1 2 2 1 1 1 2 2 2
1 1 1 1 1 1 2 1 1 0 0 1 1 1 1 1 1 2 1 1 2 3
1 1 1 1 1 2 1 2 1 1 1 1 1 1 1 1 1 1 2 1 2 2
2 1 1 1 1 2 2 1 1 1 1 1 1 1 1 1 1 1 1 1 1 1
2 2 1 1 1 1 2 2 1 1 1 1 1 1 1 1 1 1 1 1 1 1
2 1 1 1 1 1 1 1 1 1 1 1 1 1 1 1 1 1 1 1 1 0
2 1 2 1 1 1 1 1 1 2 1 1 1 3 4 2 1 1 1 1 1 1
2 2 2 2 1 2 2 1 1 1 1 1 1 4 5 4 1 1 1 1 1 1
2 2 2 2 2 2 1 2 2 1 1 1 1 5 6 5 1 1 1 1 1 1
2 2 2 2 2 2 2 2 2 1 2 2 1 6 7 6 2 1 1 1 1 1
2 2 2 2 2 2 1 2 1 2 1 3 2 7 8 7 2 2 2 1 1 5
2 2 2 2 2 2 2 2 2 2 1 1 2 2 9 10 2 2 2 2 2 1

GFSNIL_con_lsi_042.txt.gz
Lid_Strength_Index
1 1 1 1 1 1 1 1 -0 -0 -0 -0 -0 -0 -0 1 0 0 0 0 1 1
1 1 1 1 0 1 0 0 -0 -0 -0 -0 -0 -0 -0 1 0 0 0 0 0 1
1 1 1 0 1 1 0 -0 0 0 -0 -0 -0 -0 -0 0 1 1 0 0 1 0
1 1 1 1 0 1 0 0 0 0 0 0 0 -0 0 0 1 1 1 0 0 1
1 1 1 1 1 0 1 0 0 0 0 0 0 0 0 1 0 1 1 1 1 1
1 1 1 1 1 0 0 1 0 0 1 1 0 0 0 0 1 1 1 1 1 1
2 1 1 1 1 1 1 1 0 0 0 0 0 0 0 0 0 0 0 0 0 0
1 1 1 1 1 1 1 1 0 0 0 0 0 0 0 0 1 1 1 0 0 0
2 1 1 1 1 1 1 1 1 1 1 1 1 3 3 1 1 1 1 1 1 0
2 2 2 1 1 1 1 1 1 1 1 1 1 4 4 3 1 1 1 1 1 1
2 2 2 2 2 1 1 1 1 1 1 1 1 5 5 4 0 1 1 1 0 1
2 2 2 2 2 1 1 1 1 1 1 1 1 6 6 5 1 1 1 0 0 0
2 2 2 2 2 1 1 1 1 1 1 2 1 6 7 6 1 2 1 1 0 5
2 2 1 2 1 1 1 1 2 2 1 1 2 2 9 9 2 1 2 2 1 1

GFSNIL_con_lsi_048.txt.gz
Lid_Strength_Index
-0 0 0 -0 -0 0 -0 -0 -2 -1 -1 -1 -1 -1 -1 -1 -0 -1 -0 -0 -1 -0
0 0 0 -0 -1 -0 -1 -1 -1 -1 -1 -1 -1 -1 -1 -0 -0 -1 -1 -0 -1 -0
0 -0 -0 -0 -0 -1 -1 -1 -1 -1 -1 -1 -1 -1 -1 -1 -1 -1 -0 -0 -1 -0
0 -0 -0 -0 -0 -0 -1 -1 -1 -1 -1 -1 -1 -1 -1 -1 -1 -0 -0 -1 -0 -0
0 -0 0 0 -0 -1 -0 -1 -1 -1 -1 -1 -1 -1 -0 -0 -0 -0 0 -0 -0 0
1 0 0 0 -0 -0 -0 -0 -1 -1 -0 -0 -1 -1 -1 -0 -0 -0 -0 -0 -0 0
1 1 1 0 -0 -0 -0 -0 -0 -1 -0 -0 -1 -1 -1 -0 -0 -0 -0 -0 -0 -0
1 0 0 0 0 -0 -0 -0 -0 -0 -0 -0 -0 -0 -0 -0 -0 -0 -0 -0 -0 -0
1 1 1 0 0 0 0 0 -0 0 -0 0 0 2 3 0 -0 -0 0 0 -0 -1
1 1 1 1 1 1 1 0 0 0 0 0 -0 4 4 3 -0 -0 0 0 0 0
1 1 1 1 1 1 1 1 1 0 0 0 0 5 6 4 -0 -0 -0 -0 -0 0
1 1 1 1 1 1 1 1 1 0 0 0 0 6 6 4 0 0 0 -0 -0 -0
1 1 1 1 1 1 1 1 1 1 0 2 0 6 8 4 0 1 1 -0 -0 4
1 1 1 1 1 1 1 1 1 1 1 0 1 0 9 9 0 1 1 1 1 0

GFSNIL_con_lsi_051.txt.gz
Lid_Strength_Index
-0 0 0 -0 -0 0 0 -0 -1 -1 -1 -1 -1 -1 -2 -0 -0 -1 -0 -1 -0 0
0 0 0 -1 -0 -0 -1 -1 -1 -1 -1 -1 -1 -1 -1 -0 -0 -1 -1 -0 -1 -0
0 -0 -0 -0 -0 -0 -1 -1 -1 -1 -1 -1 -1 -1 -1 -1 -1 -0 -0 -0 -0 -0
0 0 -0 0 -0 -0 -1 -1 -1 -1 -1 -0 -0 -1 -0 -0 -1 -0 -0 -0 -0 -0
0 0 0 0 -0 -1 -0 -1 -1 -1 -0 -0 -0 -0 -0 0 -0 0 0 0 0 0
1 1 1 0 0 -0 -0 -0 -0 -0 -0 -0 -0 -0 -0 -0 -0 -0 -0 -0 0 0
1 1 1 0 0 -0 -0 0 -0 -0 -0 -0 -0 -0 -0 -0 0 -0 -0 -0 -0 -0
1 0 0 0 0 0 0 0 -0 0 -0 -0 -0 0 -0 -0 0 0 0 -0 -0 -0
1 1 1 1 0 0 0 0 0 0 0 0 0 2 3 0 0 0 0 1 0 -0
1 1 1 1 1 1 1 0 1 1 0 1 0 4 4 2 -0 0 0 0 0 0
1 1 1 1 1 1 1 1 1 1 0 0 0 5 6 4 -0 -0 -0 -0 0 0
1 1 1 1 1 1 1 1 1 1 1 1 0 6 7 5 0 0 0 -0 -0 -0
1 1 2 1 1 1 1 1 1 1 0 2 1 7 8 5 0 1 1 0 0 4
1 1 1 1 1 1 1 1 1 1 1 0 1 1 9 9 1 1 1 1 1 0

GFSNIL_con_lsi_054.txt.gz
Lid_Strength_Index
0 1 1 0 0 0 0 0 -0 -0 -0 -1 -1 -1 -1 -0 0 -0 0 0 0 1
1 1 1 0 -0 0 -0 -0 -0 -0 -0 -0 -0 -1 -0 0 0 -0 -0 0 0 0
1 0 0 0 0 0 -0 -0 0 0 -0 -0 -0 -0 -0 0 -0 0 0 0 1 0
1 1 0 0 0 0 -0 -0 -0 -0 0 0 0 -0 0 0 0 1 1 0 0 1
1 1 1 1 0 0 0 -0 -0 -0 0 0 0 -0 0 1 0 1 1 1 1 1
1 1 1 1 0 0 0 0 0 0 0 0 0 0 0 0 0 1 1 1 1 1
1 1 1 1 1 0 0 0 0 0 0 0 0 0 0 0 0 1 0 0 0 0
1 1 1 1 1 0 0 0 0 0 0 0 0 0 0 0 1 1 1 0 0 0
1 1 1 1 1 1 1 1 1 1 1 1 1 3 3 1 1 1 1 1 1 0
1 2 1 1 1 1 1 1 1 1 1 1 1 4 4 3 0 1 1 1 1 1
2 2 1 1 1 1 1 1 1 1 1 1 1 5 6 4 0 1 1 0 0 1
2 2 2 2 2 1 1 1 1 1 1 1 1 7 7 6 1 1 1 0 0 0
1 2 2 2 2 1 1 1 1 1 1 2 1 6 8 6 1 1 1 1 0 4
1 1 1 1 1 1 1 1 1 1 1 1 1 1 9 10 1 1 1 1 1 1

GFSNIL_con_lsi_057.txt.gz
Lid_Strength_Index
1 1 1 1 2 1 1 1 0 0 0 0 0 0 0 0 1 0 1 1 1 1
1 1 1 1 1 2 2 0 0 0 0 0 0 0 0 0 1 1 1 1 1 1
1 1 1 1 1 1 1 1 0 0 0 0 0 0 0 1 0 1 1 1 1 1
1 1 1 1 1 1 1 1 0 0 0 0 0 0 0 1 1 1 1 1 1 1
1 1 1 1 1 1 1 0 0 0 1 1 1 0 1 1 1 1 1 1 1 1
1 1 1 1 1 1 1 1 0 0 1 1 1 1 0 1 1 1 1 1 1 1
2 1 1 1 1 1 1 1 1 1 1 1 1 0 1 1 1 1 1 1 1 1
1 1 1 1 1 1 1 1 1 1 1 1 1 1 1 1 1 1 1 1 0 1
1 1 1 1 1 1 1 1 1 1 1 1 1 3 3 1 1 1 1 1 1 0
2 2 2 1 1 1 2 1 1 1 1 1 1 4 5 3 1 1 1 1 1 1
2 2 2 2 2 1 1 1 1 1 1 1 1 5 6 5 2 1 1 1 1 1
2 2 2 2 2 1 2 2 1 1 1 1 1 6 7 6 4 2 1 1 1 1
2 2 2 2 2 1 1 2 1 1 1 2 1 6 7 7 2 3 2 1 1 5
2 2 2 2 1 2 2 2 2 2 1 1 1 1 9 9 2 1 2 2 1 1

GFSNIL_con_lsi_060.txt.gz
Lid_Strength_Index
2 1 1 1 1 1 1 1 0 1 0 0 0 0 0 1 1 1 1 1 1 2
1 1 1 1 1 1 1 1 0 1 0 0 0 0 0 1 1 1 1 1 1 1
1 1 2 1 2 2 2 1 0 1 0 0 0 0 0 1 1 1 1 1 1 2
1 1 1 2 1 1 2 2 1 0 1 0 0 1 1 1 1 1 1 1 1 1
1 1 1 1 1 1 1 0 0 0 0 0 0 0 1 1 1 1 2 1 1 2
1 1 1 1 2 2 1 1 0 0 1 1 1 1 1 1 1 1 1 1 1 1
2 1 1 1 1 1 3 1 1 0 1 1 1 1 1 1 1 1 1 1 1 1
1 1 1 1 1 1 1 1 1 1 1 1 0 1 1 1 1 1 1 1 1 0
1 1 1 1 2 1 1 1 1 1 1 1 1 3 3 1 1 1 1 1 1 1
2 2 2 1 2 2 1 1 1 1 1 1 1 4 4 3 1 1 1 1 1 1
2 2 2 2 2 1 1 2 1 1 1 1 1 5 6 4 1 1 1 1 1 1
2 2 2 2 2 1 1 1 2 1 1 1 1 5 6 6 2 2 2 1 0 1
2 2 2 2 2 1 1 1 1 1 1 2 1 6 7 6 1 2 2 2 1 4
3 2 1 2 1 1 2 1 2 2 1 1 1 1 8 8 1 1 2 2 2 1

GFSNIL_con_lsi_063.txt.gz
Lid_Strength_Index
1 1 2 2 2 1 1 1 1 1 0 1 0 0 1 1 2 1 1 2 2 2
2 1 2 1 1 1 1 0 1 1 1 1 0 1 1 1 1 1 1 1 2 1
1 1 2 1 1 1 1 1 1 1 1 1 1 1 1 1 2 2 1 1 1 2
1 1 1 2 1 1 2 2 2 0 1 1 1 1 1 1 1 1 1 2 2 2
1 1 1 1 2 2 1 2 2 1 1 1 1 1 1 1 1 2 2 2 2 2
1 1 1 1 1 2 2 1 0 0 1 1 1 1 1 1 1 1 1 1 2 2
1 1 1 1 1 1 2 2 1 1 1 0 0 1 1 1 1 1 1 1 1 1
1 1 1 1 1 1 1 2 2 1 1 1 1 1 1 1 1 1 2 2 1 1
1 1 1 2 1 1 1 1 2 2 1 1 1 3 3 1 1 1 2 2 1 1
2 2 2 1 2 2 2 2 1 1 1 1 1 3 4 3 1 1 1 1 1 1
2 2 1 2 2 2 2 2 2 2 1 1 1 3 4 3 1 1 1 1 1 1
2 2 2 2 2 2 2 3 3 3 2 1 1 5 5 5 2 1 1 1 1 0
2 2 2 2 2 2 2 2 2 2 3 3 1 5 6 6 1 2 1 1 1 5
3 4 2 1 1 1 2 2 2 2 2 2 2 1 7 7 1 1 2 2 1 1

GFSNIL_con_lsi_066.txt.gz
Lid_Strength_Index
1 1 1 1 1 1 1 0 -1 -0 -0 -0 -0 -0 -0 -0 -0 -0 -0 0 0 0
1 1 1 1 1 1 0 -0 -0 -0 -0 -0 -0 -1 -0 -0 0 -0 -0 0 -0 0
1 1 1 1 1 0 -0 -0 -0 -0 -0 -0 -1 0 -0 0 -0 -0 0 0 0 0
1 1 1 1 0 0 -0 -0 -0 0 -0 -0 -0 -0 0 -0 -0 0 0 -0 0 0
1 1 1 1 0 0 0 -0 0 0 0 0 0 0 0 0 0 0 1 1 0 1
1 1 1 1 0 0 0 0 0 -0 0 0 0 0 0 0 0 0 0 0 1 1
1 1 1 1 1 1 0 0 0 0 0 0 0 0 0 0 0 0 0 0 0 0
1 1 1 1 0 0 0 0 0 0 0 0 0 0 0 0 0 1 1 0 -0 -0
1 1 1 1 1 1 1 1 1 1 1 1 0 1 2 1 1 0 1 1 0 -0
1 2 1 1 1 1 1 1 1 1 1 1 0 2 2 2 0 0 1 1 1 1
1 2 1 1 1 2 1 1 1 1 1 1 1 3 3 2 0 0 0 0 0 0
1 2 2 2 2 1 2 2 2 1 1 1 1 5 4 3 1 1 1 0 0 0
1 1 2 2 1 1 1 2 2 2 2 3 1 6 6 5 1 1 1 1 0 4
1 1 1 1 1 1 1 1 2 2 2 2 3 2 8 8 1 1 1 1 1 0

GFSNIL_con_lsi_069.txt.gz
Lid_Strength_Index
-0 0 0 -0 0 0 0 -0 -1 -1 -1 -1 -1 -1 -1 -1 -0 -1 -0 -0 -1 -1
0 -0 0 -0 -0 -0 -1 -0 -1 -1 -1 -1 -1 -1 -1 -0 -0 -1 -1 -0 -0 -0
0 -0 -0 -0 -0 -0 -1 -1 -1 -1 -1 -1 -1 -1 -1 -0 -1 -0 -0 -0 -0 -0
0 -0 -0 -0 -0 -0 -1 -1 -1 -1 -1 -0 -0 -1 -0 -1 -1 -0 -0 -0 -0 -0
0 -0 0 0 -0 -1 -0 -1 -1 -1 -0 -0 -0 -1 -0 -0 -0 0 0 -0 -0 0
1 0 0 0 -0 -0 -0 -1 -0 -0 -0 -0 -0 -0 -0 -0 -0 -0 -0 -0 -0 0
1 1 0 0 -0 -0 -0 -0 -0 -0 -0 -0 -0 -0 -0 -0 -0 -0 -0 -0 -0 -0
1 0 1 0 -0 -0 -0 -0 -1 -0 -0 -0 -0 -0 -0 -0 -0 -0 0 -0 -0 -1
1 0 0 0 0 0 -0 -0 -0 -0 -0 0 0 2 2 0 -0 0 0 0 -0 -1
1 1 1 0 0 0 1 0 0 0 0 0 -0 3 3 1 -0 0 0 0 0 0
1 1 1 1 1 1 0 1 1 0 0 0 0 4 4 2 -0 0 -0 -0 -0 0
1 1 1 1 1 1 1 1 1 0 0 1 0 5 5 3 0 0 0 -0 -0 -0
1 1 1 1 1 1 0 1 1 1 0 1 0 4 6 4 0 1 1 0 -0 3
1 1 0 1 1 1 1 1 1 1 1 0 0 0 7 8 0 1 1 1 1 0

GFSNIL_con_lsi_072.txt.gz
Lid_Strength_Index
-1 0 0 -0 -0 -0 -0 -0 -2 -1 -1 -2 -2 -2 -2 -1 -1 -1 -1 -0 -1 -1
-0 -0 -0 -1 -1 -0 -1 -1 -1 -1 -1 -1 -2 -2 -2 -1 -1 -1 -1 -1 -1 -0
-0 -0 -1 -1 -1 -1 -1 -1 -1 -1 -1 -1 -1 -1 -1 -1 -1 -1 -0 -1 -1 -1
-0 -0 -0 -0 -1 -1 -1 -1 -1 -1 -1 -1 -1 -1 -1 -1 -1 -0 -1 -1 -1 -0
0 -0 -0 -0 -1 -1 -1 -1 -1 -1 -1 -1 -1 -1 -1 -0 -1 -0 -0 -0 -0 -0
0 0 0 -0 -1 -1 -1 -1 -1 -1 -1 -1 -1 -1 -1 -1 -1 -0 -0 -0 -0 -0
1 0 0 -0 -0 -1 -1 -0 -1 -1 -1 -1 -1 -1 -1 -1 -1 -1 -1 -1 -0 -1
0 -0 -0 -0 -0 -1 -1 -1 -1 -1 -1 -1 -0 -0 -1 -1 -0 -0 -0 -1 -1 -1
0 -0 -0 -0 -0 -0 -0 -0 -0 -0 -0 -0 -0 2 3 0 -0 -0 -0 0 -0 -1
1 1 0 0 0 0 0 -0 0 0 -0 0 -0 3 4 2 -0 -0 -0 -0 -0 -0
0 1 0 1 1 0 0 0 0 0 0 -0 -0 4 4 3 -0 -0 -0 -0 -0 -0
1 1 1 1 1 1 1 1 0 0 0 0 0 6 5 3 -0 0 0 -0 -1 -1
1 1 1 1 0 0 0 1 1 0 0 1 0 5 7 4 0 1 1 -0 -0 3
2 1 1 1 0 0 0 0 1 1 0 -0 0 0 8 8 0 1 1 1 0 -0

GFSNIL_con_lsi_075.txt.gz
Lid_Strength_Index
-0 0 0 -0 0 0 1 0 -1 -1 -1 -1 -1 -2 -2 -1 -1 -1 -1 -1 -1 0
-0 -0 -0 -1 -1 -0 -0 -0 -1 -1 -1 -1 -2 -2 -2 -0 -0 -1 -1 -1 -1 -0
-0 -0 -0 -1 -1 -1 -0 -1 -0 -1 -1 -1 -1 -1 -1 -0 -1 -1 -0 -0 -0 -0
0 -0 -0 -0 -1 -1 -1 -1 -1 -1 -1 -1 -1 -1 -1 -1 -1 -0 -1 -1 -1 -0
-0 -0 -0 0 -0 -1 -1 -1 -1 -1 -1 -1 -1 -1 -0 -0 -1 -0 0 0 -0 -0
0 0 0 -0 -0 -1 -1 -1 -1 -1 -0 -1 -0 -0 -1 -0 -0 -0 -0 -0 -0 -0
0 0 0 -0 -0 -0 -0 -0 -0 -1 -1 -1 -1 -1 -0 -0 -0 -0 -0 -0 -0 -0
-0 -0 0 -0 -0 -0 -0 -0 -0 -0 -0 -1 -0 -0 -0 -0 -0 -0 0 -0 -0 -0
0 0 0 -0 -0 -0 -0 -0 -0 -0 -0 -0 -0 2 3 0 -0 -0 0 0 -0 -0
1 1 1 0 0 0 0 0 0 0 0 0 -0 3 3 3 -0 0 -0 -0 0 0
3 1 1 1 1 1 1 1 0 0 0 0 0 4 5 3 -0 -0 -0 -0 -0 -0
5 4 2 2 1 0 0 1 1 0 0 0 0 6 6 4 -0 0 0 -0 -0 -0
5 4 1 1 3 1 0 1 0 1 0 2 0 4 8 5 0 1 1 0 -0 3
4 4 3 1 0 1 1 1 1 1 0 0 0 0 8 9 0 1 1 1 1 0

GFSNIL_con_lsi_078.txt.gz
Lid_Strength_Index
-0 0 1 1 0 0 1 0 -2 -1 -1 -1 -1 -1 -1 -0 -0 -0 0 0 0 1
0 0 0 0 -0 0 -0 -0 -1 -1 -0 -1 -1 -1 -1 -0 0 -1 0 -0 0 1
1 0 0 -0 0 -1 0 0 -0 -0 -0 -0 -0 -1 -1 -0 -0 0 0 0 0 0
1 0 0 0 -0 -0 -1 1 1 1 2 0 -0 -0 -0 -0 0 0 0 -0 0 1
1 0 1 1 0 -0 -0 -0 -0 2 2 0 0 0 0 0 -0 1 1 1 0 1
1 1 1 1 0 -0 -0 -0 -0 -0 0 -0 -0 -0 -0 0 0 0 0 0 1 1
1 1 1 0 0 0 -0 0 0 -0 0 0 -0 -0 -0 0 0 0 0 0 0 0
2 1 -0 -0 -0 -0 0 0 0 0 0 0 0 0 0 0 0 1 1 0 0 0
1 1 1 0 0 0 0 0 0 0 0 1 0 2 3 1 0 0 1 1 0 0
2 1 1 1 0 1 1 0 1 1 1 1 0 3 4 3 0 1 1 1 1 1
5 4 2 1 2 1 0 1 1 1 0 1 1 4 5 4 0 0 0 0 0 1
5 5 4 1 2 1 1 1 1 1 1 1 1 6 7 5 0 1 1 0 0 0
3 3 5 4 2 1 1 1 1 1 0 2 1 5 7 6 1 1 1 1 0 3
3 3 3 2 3 1 2 1 1 1 1 1 1 1 8 9 1 1 1 1 1 0

GFSNIL_con_lsi_081.txt.gz
Lid_Strength_Index
1 1 1 1 1 1 2 1 0 0 0 0 0 0 0 1 1 1 1 1 1 1
1 1 1 2 1 0 0 0 0 1 0 0 0 0 0 1 1 1 1 1 1 1
1 1 1 1 1 1 0 1 1 1 1 1 0 -0 0 1 1 1 0 1 1 1
1 1 1 1 1 1 1 2 1 2 2 1 0 0 0 1 1 1 1 1 1 1
1 1 1 1 1 1 1 1 2 1 2 3 1 0 1 1 1 1 1 1 1 1
2 1 1 1 1 1 1 2 3 3 2 1 1 0 0 0 1 1 1 1 1 1
3 3 2 1 1 1 0 1 0 1 0 0 0 1 0 0 1 1 1 1 0 1
2 3 3 2 1 1 1 1 0 1 1 1 0 0 1 1 1 1 1 1 0 0
2 1 1 1 1 1 1 1 1 1 1 1 1 2 3 1 1 1 1 1 1 0
4 3 2 1 1 3 1 1 1 1 1 1 1 4 5 4 1 1 1 1 1 1
4 5 4 2 2 3 2 2 1 1 1 1 1 4 5 4 3 2 1 1 1 1
4 5 5 5 5 3 2 2 1 1 1 1 1 4 7 6 3 2 2 1 0 1
5 5 6 5 5 4 2 2 2 2 1 2 1 4 7 6 2 3 2 2 1 3
5 6 6 6 5 4 5 4 2 2 2 1 1 1 6 8 3 1 2 1 1 1

GFSNIL_con_lsi_084.txt.gz
Lid_Strength_Index
2 2 2 1 1 1 1 1 1 0 0 0 0 0 0 1 1 1 1 2 2 1
1 1 1 1 2 1 1 1 0 0 0 0 1 0 0 1 1 1 1 1 1 2
1 1 1 1 2 1 1 0 0 1 0 0 0 0 0 1 1 1 1 1 2 1
1 1 1 1 1 1 1 1 1 2 2 2 1 1 1 1 1 1 1 1 1 2
1 1 1 1 1 1 2 1 2 2 3 2 1 1 1 1 1 1 1 1 1 1
2 1 1 1 1 1 1 1 1 2 2 2 2 1 1 1 1 1 1 1 1 1
2 3 3 2 1 1 1 2 2 3 3 2 1 1 0 1 1 1 1 1 1 1
1 2 1 2 2 2 1 1 2 2 1 2 1 0 1 1 2 1 1 1 1 0
2 2 1 1 1 1 1 1 1 1 1 1 0 3 3 1 1 2 2 1 1 1
5 5 4 2 1 1 1 1 1 1 1 1 1 4 4 4 2 1 1 1 1 1
5 5 4 4 4 3 1 2 2 2 2 2 1 5 5 5 3 3 1 1 1 2
5 5 4 4 4 4 3 3 3 3 2 2 2 5 7 6 3 3 3 2 1 0
7 7 7 6 6 5 4 3 3 3 2 3 2 5 6 6 3 3 2 2 2 5
7 7 8 8 7 7 6 5 4 3 2 2 2 2 6 7 3 1 2 3 1 1

GFSNIL_con_lsi_087.txt.gz
Lid_Strength_Index
2 3 3 2 2 2 1 1 1 1 1 1 0 0 1 1 1 1 1 2 2 2
2 2 3 2 1 1 1 1 1 1 0 1 1 1 0 1 2 1 1 2 1 2
1 1 2 1 2 2 1 1 1 0 0 1 0 1 1 1 2 2 2 2 2 2
1 1 1 1 1 2 1 1 0 0 1 1 1 1 1 1 1 2 1 2 1 1
2 1 1 1 1 1 1 2 1 1 2 2 2 1 1 1 1 1 2 2 2 1
3 2 2 1 1 1 1 2 2 2 2 2 3 1 1 1 1 1 1 1 1 2
2 2 2 2 2 2 1 1 2 2 2 3 2 1 1 1 1 1 1 1 2 2
1 1 1 1 1 2 2 1 1 2 2 3 3 1 1 1 1 2 2 1 1 1
2 2 2 1 1 1 1 1 1 1 1 2 1 3 3 2 1 1 2 2 2 1
4 4 4 4 3 2 2 2 1 2 1 1 1 4 5 4 2 1 2 2 2 1
4 4 4 4 4 4 3 3 2 2 3 2 1 5 6 5 3 3 2 2 1 1
7 7 7 6 6 5 5 4 4 3 2 2 2 5 6 5 3 2 3 3 2 1
8 8 8 8 6 5 5 5 3 3 3 3 2 4 6 5 2 2 2 2 2 5
9 9 9 8 9 8 7 7 7 5 4 4 3 2 7 7 3 2 1 1 2 1

GFSNIL_con_lsi_090.txt.gz
Lid_Strength_Index
1 1 1 1 1 0 0 0 -1 -1 -0 -1 -0 -1 -1 -0 -0 -0 0 0 -0 0
1 2 2 1 0 0 0 0 -0 -0 -0 -0 -0 -1 -1 -0 -0 -0 -0 -0 -0 0
1 1 1 1 1 0 0 -0 0 -0 -0 -0 -0 -0 -0 -0 -0 -0 0 -0 -0 -0
0 1 0 1 0 0 0 0 -0 -0 -0 -0 -0 -0 0 -0 0 0 0 -0 0 0
0 0 0 1 0 -0 0 0 0 -0 -0 -0 0 -0 0 0 0 0 1 0 0 0
2 2 2 1 0 -0 0 0 1 1 1 1 1 1 0 -0 0 0 0 0 0 0
1 1 2 2 1 1 0 0 1 1 1 1 1 1 0 0 0 0 0 0 -0 0
1 1 0 1 1 1 0 0 -0 0 1 1 1 2 1 -0 0 0 0 0 -0 -0
2 3 2 1 1 1 1 1 0 0 0 0 0 3 4 1 0 0 0 1 0 0
3 4 4 3 3 2 2 2 2 2 1 1 1 5 5 4 2 0 0 0 0 0
5 5 4 4 5 4 3 3 2 2 1 1 1 4 5 4 2 1 1 0 0 0
6 7 7 7 6 5 5 4 4 3 3 2 2 7 7 5 2 1 1 0 1 1
9 8 8 7 6 6 6 4 3 4 4 5 4 8 8 6 4 3 1 0 -0 4
10 10 9 8 8 8 7 7 6 6 6 6 7 7 9 9 8 8 5 2 2 2

GFSNIL_con_lsi_093.txt.gz
Lid_Strength_Index
-0 0 0 -0 -0 0 -0 -1 -2 -1 -1 -1 -1 -1 -1 -1 -1 -1 -1 -0 -1 -1
-0 -0 0 -0 -1 -0 -1 -1 -1 -1 -1 -1 -1 -1 -1 -1 -0 -1 -1 -1 -1 -1
-0 -1 -1 -0 -0 -0 -1 -1 -1 -1 -1 -1 -1 -1 -1 -0 -1 -0 -0 -0 -0 -0
-0 -0 -0 -0 -0 -0 -1 -1 -1 -1 -1 -1 -1 -1 -1 -1 -1 -0 -0 -0 -0 -0
-0 -0 -0 -0 -0 -1 -0 -1 -1 -1 -1 -1 -1 -1 -0 -0 -0 -0 0 -0 -0 0
1 0 0 -0 -0 -1 -0 -1 -1 -1 -0 -0 -0 -0 -1 -0 -0 -0 -0 -0 -0 -0
1 0 -0 -0 -0 -0 -0 -0 -0 -1 -0 -0 -0 -0 -1 -0 -0 -0 -1 -1 -1 -0
1 0 -0 -0 -0 -0 -0 -0 -1 -0 -0 -0 -0 -0 -0 -0 -0 -0 -0 -0 -1 -1
1 2 2 0 -0 -0 -0 -0 -0 -0 -0 0 0 4 4 1 -0 -0 -0 0 -0 -1
2 2 3 3 2 1 0 0 0 -0 -0 -0 1 6 6 4 -0 0 -0 0 -0 -0
4 4 3 3 3 2 2 1 1 1 0 2 5 7 6 4 -1 -0 -0 -0 -0 -0
6 6 5 5 5 4 3 2 2 2 0 4 7 8 7 1 -0 0 0 -0 -0 -0
8 8 8 7 5 4 3 2 2 2 3 6 7 9 9 6 4 3 1 -0 2 6
8 9 8 7 6 6 6 5 5 4 4 5 6 9 10 10 7 7 5 4 4 4

GFSNIL_con_lsi_096.txt.gz
Lid_Strength_Index
-1 -0 -0 -0 -0 -0 -0 -0 -1 -1 -2 -2 -2 -1 -2 -1 -1 -1 -1 -0 -1 -1
-1 -1 -0 -1 -1 -1 -1 -1 -1 -2 -1 -2 -2 -2 -2 -1 -1 -1 -1 -1 -1 -0
-1 -1 -1 -1 -1 -1 -1 -1 -1 -1 -1 -1 -1 -2 -1 -1 -1 -1 -0 -0 -1 -1
-0 -1 -1 -1 -1 -1 -1 -1 -1 -1 -1 -1 -1 -1 -1 -1 -1 -0 -1 -1 -1 -1
-0 -1 -0 -0 -1 -1 -1 -1 -1 -1 -1 -1 -1 -1 -1 -0 -1 -0 -0 -0 -1 -0
0 -0 -0 -1 -1 -1 -1 -1 -1 -1 -1 -1 -1 -1 -1 -1 -0 -0 -1 -0 -0 -0
1 1 0 -0 -1 -1 -1 -1 -1 -1 -1 -1 -1 -1 -1 -1 -0 -1 -1 -1 -1 -1
1 0 0 -0 -0 -1 -1 -1 -1 -1 -1 -1 -1 -0 -0 -1 -0 -0 -0 -1 -1 -1
0 0 0 0 -0 -0 -0 -1 -1 -0 -0 -1 -1 6 4 1 -0 -0 -0 0 -0 -1
1 1 1 1 1 0 0 -0 -0 -0 -0 1 2 7 6 4 -0 -0 -0 -0 -0 -0
3 2 1 1 2 1 -0 -1 -1 -0 -0 1 5 8 7 4 -1 -0 -0 -1 -1 -0
5 4 3 2 1 0 -1 -1 -0 -1 0 2 5 9 8 3 -1 -0 -0 -0 2 1
5 5 5 4 4 2 2 1 0 -0 2 5 4 9 9 6 1 -0 -0 -0 1 7
7 7 6 5 5 4 2 2 2 2 2 3 4 7 9 9 8 8 3 1 1 2

GFSNIL_con_lsi_102.txt.gz
Lid_Strength_Index
-0 0 0 0 0 1 1 0 -0 -1 -1 -1 -1 -1 -1 -1 -0 -0 0 0 0 1
-1 -1 -1 -1 -1 -0 0 -0 1 3 -0 -1 -0 -1 -0 -0 -0 0 0 0 0 1
0 0 -1 -1 -1 -1 1 1 -0 1 -0 -0 -0 -1 -1 -1 -0 0 0 0 0 1
-0 -0 -0 -0 -1 -1 1 1 2 -0 -0 0 -0 -1 -0 -0 -1 -0 0 0 0 0
1 0 -0 0 1 -1 -1 -0 -1 -1 -0 -0 -0 -0 0 0 0 0 1 0 0 0
0 0 -0 0 0 0 -0 -1 -1 -1 -0 -0 -0 -0 0 0 0 0 0 0 0 0
1 1 0 0 -0 -0 -0 -0 0 -0 -0 0 -0 -0 -0 0 0 0 0 -0 -0 0
1 0 0 0 0 0 0 0 0 0 -0 2 2 4 3 1 1 1 0 -0 0 -0
1 1 1 0 0 0 1 0 0 0 0 2 4 7 6 4 0 -0 0 1 0 -0
1 1 1 0 0 0 1 1 1 1 2 5 7 8 7 5 2 0 0 0 0 0
1 1 1 1 1 0 0 1 1 1 2 4 8 8 7 5 1 0 0 0 0 0
1 1 1 1 1 0 1 1 1 0 1 3 7 9 9 4 0 0 1 1 5 2
4 3 2 2 1 0 0 0 0 1 2 4 6 9 9 8 2 2 2 2 5 7
6 5 3 2 2 1 1 0 1 1 2 5 6 8 9 9 6 7 4 3 4 4

GFSNIL_con_lsi_105.txt.gz
Lid_Strength_Index
1 1 1 1 1 1 1 1 0 0 0 0 0 0 0 0 1 1 2 1 1 2
1 1 1 1 1 1 0 0 0 1 3 2 0 0 0 1 1 1 2 3 1 1
1 1 1 1 2 2 2 1 1 2 2 2 0 0 0 1 1 1 3 1 1 1
1 1 1 1 1 1 2 2 1 0 1 0 0 0 1 1 1 1 1 1 1 1
1 2 1 2 1 1 1 1 2 0 0 0 1 1 1 1 1 1 1 1 1 1
2 1 1 1 1 1 0 1 0 0 1 1 1 1 1 1 1 1 1 1 1 1
2 2 1 1 1 1 1 1 1 0 0 0 2 2 2 1 1 1 1 0 1 1
1 1 1 1 1 1 1 0 0 0 2 3 4 4 4 3 2 1 1 0 0 1
1 1 1 1 1 1 1 1 0 1 3 5 6 7 6 5 4 1 1 1 1 1
1 2 1 1 1 2 2 1 1 3 6 9 9 8 7 5 5 2 1 1 1 2
1 1 1 1 1 1 1 1 2 3 5 9 10 9 8 5 3 2 2 4 3 5
2 3 2 3 2 1 1 1 2 3 6 9 10 9 8 5 4 3 5 7 7 8
5 4 5 4 4 3 2 1 3 4 5 7 10 9 9 7 7 6 3 6 8 7
6 5 5 5 4 4 3 2 3 5 6 7 9 10 9 9 10 9 7 6 7 7

GFSNIL_con_lsi_108.txt.gz
Lid_Strength_Index
1 1 1 1 1 1 2 2 1 0 1 1 0 1 0 1 1 1 2 2 2 2
1 1 1 1 2 1 0 0 1 0 2 2 1 1 1 1 2 1 2 3 1 1
1 1 1 1 1 1 0 0 0 1 2 2 2 1 1 1 1 1 2 3 1 2
1 1 1 2 1 2 2 2 1 2 1 1 1 1 1 1 1 1 1 1 1 1
1 1 1 2 1 2 2 3 3 2 1 1 1 1 1 1 1 1 2 1 1 1
1 1 1 2 2 1 1 1 2 1 1 1 1 1 1 1 1 1 1 1 2 1
2 1 1 1 1 1 1 1 2 1 1 2 3 3 3 2 1 1 1 0 1 1
2 1 1 1 1 1 1 1 1 2 3 4 5 5 4 2 2 1 1 0 0 1
2 2 2 1 1 1 1 1 1 2 4 6 7 7 6 5 4 3 1 1 1 2
1 1 1 1 1 2 2 1 3 6 8 10 9 7 6 5 4 2 1 2 2 3
2 2 2 2 2 2 2 3 5 6 8 10 10 8 6 3 2 3 5 4 5 8
2 2 3 3 2 2 2 3 4 6 8 10 11 8 7 5 2 5 8 8 9 9
3 4 4 4 4 3 2 2 4 6 8 9 11 9 8 8 5 5 5 7 7 8
5 5 5 5 5 4 3 4 5 6 8 10 11 10 9 9 10 9 7 7 7 8

GFSNIL_con_lsi_111.txt.gz
Lid_Strength_Index
1 1 2 2 2 1 1 1 1 1 1 1 1 2 1 1 1 1 2 2 2 2
1 2 2 1 1 1 1 1 1 0 1 1 1 1 1 2 2 2 2 3 2 2
1 2 1 1 2 2 1 0 1 1 2 2 2 1 1 1 1 2 2 4 1 2
1 1 1 2 2 1 2 2 1 1 2 3 2 1 1 1 1 2 2 1 1 1
1 2 2 2 2 1 2 2 2 2 3 1 1 1 1 1 1 1 2 2 2 2
1 1 1 2 2 2 2 2 2 2 1 1 1 1 1 1 1 1 1 1 1 1
1 1 1 1 1 2 2 2 2 1 1 2 3 3 2 2 1 1 1 1 1 1
1 1 1 1 1 1 1 1 1 2 3 4 4 5 5 3 3 2 1 1 0 1
1 1 1 1 1 1 1 1 0 2 4 5 5 7 7 5 3 2 1 1 2 2
2 2 2 1 1 1 1 1 3 6 7 9 9 7 6 5 4 2 1 1 2 4
2 2 2 2 2 2 2 4 6 8 9 10 9 7 5 3 2 3 3 3 4 6
2 2 3 3 3 2 3 5 7 8 9 11 10 8 7 4 5 6 6 7 7 8
3 3 3 3 3 3 3 4 6 8 10 9 12 9 8 4 5 8 8 7 8 8
4 4 4 4 3 2 3 5 6 8 10 11 11 10 9 9 8 7 7 7 8 10

GFSNIL_con_lsi_114.txt.gz
Lid_Strength_Index
1 1 1 1 1 1 1 0 -0 0 -0 0 0 1 -0 -0 -0 -0 0 0 0 0
1 1 1 0 1 0 -0 0 0 -0 -0 0 -0 -0 -0 0 -0 -0 0 0 0 0
1 0 1 0 1 0 0 0 0 -0 0 0 1 -0 -0 0 -0 0 0 2 0 0
1 1 1 1 1 1 0 -0 0 0 -0 1 1 -0 0 0 0 0 0 0 0 1
1 0 1 1 1 1 1 1 1 -0 1 1 0 -0 0 1 0 1 1 1 0 1
1 1 1 1 1 1 1 1 1 1 0 0 0 0 -0 0 0 0 0 0 1 1
1 1 1 0 1 0 1 1 0 0 0 0 1 1 1 1 0 0 0 0 0 0
1 1 1 1 1 0 0 0 1 1 1 2 2 3 3 2 1 1 0 0 0 -0
1 1 1 1 1 1 1 1 0 1 2 2 3 7 6 5 3 1 1 1 0 1
1 1 1 1 1 1 1 1 1 2 4 6 7 7 6 5 3 1 1 1 1 3
1 2 1 1 1 1 1 2 3 6 8 7 7 7 6 3 1 1 3 3 3 5
2 2 1 2 1 2 2 5 6 7 7 8 8 9 6 3 3 5 6 6 6 7
1 1 2 2 2 2 3 5 7 8 8 9 9 9 8 4 5 7 6 6 6 8
3 3 3 3 2 2 4 5 6 8 9 9 10 9 9 9 5 4 4 5 6 8

GFSNIL_con_lsi_117.txt.gz
Lid_Strength_Index
-0 0 0 0 -0 0 0 0 -1 -1 -1 -1 -1 -1 -1 -0 -0 -1 -0 0 -1 -0
-0 -0 0 -0 -0 -0 -0 -0 -1 -1 -1 -1 -1 -1 -1 -0 -0 -1 -0 -0 -0 -0
0 -0 -0 -0 -0 -0 -1 -1 -1 -0 -1 -1 -1 -1 -1 -1 -1 -0 -0 -0 -0 -0
0 -0 -0 -0 -0 -0 -1 -1 -0 -1 -0 -0 -0 -1 -0 -1 -0 -0 -0 -0 -0 0
0 -0 0 0 -0 -1 -0 -1 -1 -1 -0 -0 -0 -1 -0 0 -0 -0 0 0 -0 0
1 0 0 0 -0 -0 -0 -0 -0 -0 -0 -0 -0 -0 -0 -0 -0 -0 -0 -0 -0 0
1 0 0 -0 -0 -0 -0 -0 -0 -0 -0 -1 -0 -0 -0 -0 -0 -0 -0 -0 -0 -0
0 0 0 0 -0 -0 -0 -0 -1 -0 -0 -0 -0 -0 -0 -0 -0 0 0 -0 -0 -1
1 1 1 1 0 0 0 0 -0 -0 1 1 -0 6 6 4 -0 0 0 0 -0 -0
1 1 1 1 1 1 1 1 0 1 2 2 4 6 6 5 1 0 -0 0 0 0
1 2 1 1 1 1 1 1 1 3 4 6 6 8 6 4 1 -0 -0 1 0 1
1 2 2 2 1 1 1 1 3 5 6 6 6 9 6 2 1 2 4 5 4 3
1 1 2 1 1 1 1 3 5 5 6 8 6 9 8 3 -0 2 3 4 5 8
3 2 1 2 1 3 4 5 5 5 6 7 7 8 9 8 1 1 1 2 3 4

GFSNIL_con_lsi_120.txt.gz
Lid_Strength_Index
-1 -0 -0 -0 -0 0 0 -0 -1 -1 -1 -2 -1 -1 -1 -1 -0 -1 -0 -0 -0 0
-0 -0 -0 -1 -1 -0 -1 -1 -1 -1 -1 -1 -1 -1 -1 -0 -1 -1 -1 -1 -1 -0
-0 -0 -1 -1 -1 -1 -1 -1 -1 -1 -1 -1 -1 -1 -1 -1 -1 -1 -0 -0 -1 -0
-0 -0 -0 -0 -1 -1 -1 -1 -1 -1 -1 -1 -1 -1 -1 -1 -1 -0 -0 -1 -0 -0
-0 -0 -0 -0 -0 -1 -1 -1 -1 -1 -1 -1 -1 -1 -1 -0 -1 -0 0 -0 -0 -0
0 0 0 -0 -1 -1 -1 -1 -1 -1 -0 -0 -1 -1 -1 -1 -0 -0 -0 -0 -0 -0
0 0 0 -0 -0 -0 -1 -1 -0 -1 -1 -1 -1 -1 -1 -1 -0 -0 -0 -1 -0 -0
-0 -0 -0 -0 -0 -1 -1 -1 -1 -1 -1 -1 -1 -0 -0 -0 -0 -0 -0 -0 -1 -1
0 -0 0 -0 -0 -0 -0 -0 -0 -0 -0 -0 -0 6 5 3 -0 -0 0 0 -0 -0
0 0 0 0 0 0 1 0 0 -0 -0 0 -1 6 6 5 1 -0 -0 -0 -0 0
1 1 0 1 1 1 1 1 1 0 0 0 1 7 6 4 2 0 -1 -0 -0 0
1 1 1 2 1 1 1 1 1 3 4 5 6 8 6 4 0 0 2 3 1 2
1 1 2 1 1 1 1 2 4 5 6 7 5 8 9 5 0 1 1 1 3 8
1 1 1 1 1 2 4 6 6 6 7 7 6 7 9 9 1 1 1 0 0 1

GFSNIL_con_lsi_123.txt.gz
Lid_Strength_Index
-1 0 0 -0 -0 0 0 -0 -1 -1 -1 -1 -1 -1 -1 -0 -0 -1 -0 -1 -0 0
-0 -0 -0 -1 -1 -0 -1 -1 -1 -1 -1 -1 -1 -1 -1 -0 -0 -1 -1 -0 -1 0
-0 -0 -0 -0 -0 -1 -1 -1 -1 -1 -1 -1 -1 -1 -1 -0 -1 -1 -0 -0 -1 -1
0 -0 -0 -0 -0 -1 -1 -1 -1 -1 -1 -1 -0 -1 -1 -0 -0 -0 -0 -0 -0 -0
-0 -0 -0 -0 -0 -1 -0 -1 -1 -1 -1 -1 -1 -1 -0 0 -0 0 0 0 0 0
0 0 -0 -0 -0 -1 -0 -1 -1 -1 -0 -0 -1 -1 -0 -0 -0 -0 -0 -0 0 -0
0 0 0 -0 -0 -0 -1 -0 -0 -1 -1 -0 -1 -1 -1 -0 -0 -0 -0 -0 -0 -0
0 -0 -0 -0 -0 -0 -1 -1 -1 -1 -1 -1 -0 -0 -1 -0 -0 0 0 -0 -0 -1
0 0 -0 -0 -0 -0 -0 -0 -0 -0 -0 -0 -0 5 5 3 -0 -0 0 0 -0 -1
0 0 0 0 0 0 0 -0 -0 -0 0 0 3 6 6 5 0 -0 -0 -0 -0 0
1 1 1 1 0 0 0 0 1 1 1 1 7 7 6 3 -0 -0 0 0 0 0
1 1 1 1 2 1 1 1 1 2 3 4 6 8 7 4 -0 0 1 2 4 1
0 1 1 1 1 0 1 1 4 5 6 6 6 9 9 7 2 1 1 3 4 8
1 1 1 1 1 3 5 6 6 7 7 8 9 10 10 9 6 4 1 1 1 6

GFSNIL_con_lsi_126.txt.gz
Lid_Strength_Index
0 1 1 0 1 1 0 1 -0 0 -1 -1 -1 -1 -1 -0 0 0 0 0 0 1
0 0 1 0 -0 -0 -1 -0 -0 -0 -0 -0 -0 -0 -1 0 0 0 0 0 0 1
1 0 0 -1 -0 -0 -1 -1 -1 -1 -0 -0 -0 -1 -0 0 -0 0 0 0 0 0
1 0 0 0 0 -0 -1 -1 -0 -0 -0 -0 -0 -0 -0 0 0 0 0 0 0 1
1 1 1 1 0 -0 0 -0 -0 -0 -0 0 -0 -0 0 1 0 1 1 0 1 1
1 1 1 1 0 0 0 0 0 -0 0 0 0 0 0 0 0 1 1 0 1 1
1 1 1 0 -0 -0 -0 0 -0 -0 0 0 0 -0 0 0 0 0 0 -0 0 0
1 1 0 0 0 -0 0 0 -0 0 0 -0 0 1 1 -0 -0 0 1 0 0 0
1 1 1 0 1 0 0 0 -0 0 0 0 3 5 5 4 1 0 1 1 0 -0
1 1 1 1 1 1 1 0 0 0 0 1 4 6 5 4 2 1 0 0 0 0
1 1 1 1 1 1 0 1 1 1 1 3 6 7 6 4 2 1 0 0 0 1
2 2 1 1 1 1 1 1 1 1 1 3 7 9 8 5 1 1 1 1 2 1
1 2 1 1 1 1 1 1 4 7 6 7 10 10 10 8 4 3 2 3 5 6
2 2 3 3 4 5 6 6 7 8 8 10 10 10 10 9 9 8 5 2 5 7

GFSNIL_con_lsi_129.txt.gz
Lid_Strength_Index
1 1 1 1 1 1 1 1 1 0 0 0 0 0 0 1 1 1 1 1 1 1
1 1 1 1 1 1 1 0 0 0 0 0 0 0 0 1 1 1 1 1 1 1
1 1 1 1 1 1 1 1 0 1 0 0 0 0 0 1 1 1 1 1 1 1
1 1 1 1 1 1 1 1 1 1 0 1 1 0 1 1 1 1 1 1 1 1
1 1 1 1 1 0 1 0 0 1 1 1 1 1 1 1 1 1 2 1 1 2
1 1 1 1 1 1 1 1 0 1 1 1 1 1 1 1 1 1 1 1 1 1
2 1 1 1 1 1 1 1 1 1 1 1 1 1 1 1 1 1 1 1 1 1
1 1 1 1 1 1 1 1 1 1 1 1 2 3 3 1 1 1 1 1 1 1
2 1 1 1 1 1 1 1 1 1 1 4 5 5 4 3 3 2 1 2 1 1
2 2 2 1 1 2 1 1 2 1 2 5 7 5 4 3 3 2 1 2 1 1
2 2 2 2 2 2 2 2 2 2 4 6 7 7 6 4 3 1 1 2 2 1
2 2 2 3 3 2 2 3 3 2 5 8 11 10 8 4 3 2 2 4 5 4
2 3 3 3 4 4 5 6 7 9 9 10 10 10 9 6 4 4 2 5 8 7
3 4 3 4 5 6 6 7 8 9 9 9 9 10 10 9 7 6 4 4 6 7

GFSNIL_con_lsi_132.txt.gz
Lid_Strength_Index
1 1 2 2 2 2 2 1 1 0 0 0 0 0 0 1 1 1 1 1 1 1
1 1 2 1 1 1 1 1 1 0 0 1 0 1 1 1 1 1 2 1 1 2
1 1 1 1 1 1 1 1 1 0 1 1 1 0 1 1 1 1 2 1 2 2
1 1 1 1 1 1 1 1 1 0 1 1 1 1 1 1 1 1 2 2 2 1
1 1 1 1 1 1 1 1 1 1 1 1 1 1 1 1 1 1 2 1 1 2
1 1 1 1 1 1 1 1 0 1 1 1 1 1 1 1 1 1 1 1 1 1
2 1 2 1 1 1 1 1 1 1 1 1 1 1 1 1 1 1 1 1 1 1
2 1 1 1 1 1 1 1 1 1 1 1 1 1 2 1 1 1 1 1 1 1
3 2 1 1 1 1 1 2 2 1 1 2 4 6 4 3 3 3 2 2 1 1
3 3 1 2 2 2 2 2 1 2 4 6 6 6 5 3 4 3 2 2 2 1
2 2 1 2 2 3 3 3 3 3 6 7 9 7 7 4 3 1 2 3 2 3
2 2 2 3 3 3 3 3 3 5 7 8 9 7 7 4 2 2 5 6 6 4
1 2 3 3 4 4 5 6 7 7 8 8 8 9 8 5 3 3 6 6 6 6
1 3 4 5 5 6 7 8 8 9 9 8 8 9 9 8 5 4 4 5 5 6

GFSNIL_con_lsi_135.txt.gz
Lid_Strength_Index
2 2 1 2 2 1 1 1 1 1 0 1 1 1 1 1 1 1 1 2 2 2
1 1 2 2 1 2 1 1 1 1 1 0 1 1 1 1 1 1 2 2 2 2
2 1 1 2 2 1 1 1 1 1 1 0 1 1 1 1 1 2 2 2 2 2
2 1 1 2 1 1 1 1 1 2 1 1 1 1 1 1 1 1 2 2 2 2
1 1 1 1 1 0 1 1 1 1 1 1 1 1 1 1 1 2 2 2 2 2
1 1 1 1 1 1 1 2 1 1 1 2 1 1 1 1 1 1 1 1 2 2
2 1 1 1 1 1 2 2 1 1 1 1 1 1 1 1 2 1 1 1 1 1
1 1 2 2 1 1 1 1 1 1 1 1 1 1 1 1 1 2 1 1 1 1
2 2 2 2 2 1 1 1 1 1 1 2 2 5 4 2 2 2 2 2 2 2
3 3 3 2 2 2 2 1 2 2 2 3 6 6 5 4 4 3 3 3 2 1
3 3 3 3 2 2 2 2 2 3 5 6 8 8 7 4 4 3 3 3 2 4
2 3 3 2 2 2 3 3 2 4 6 8 10 8 7 5 3 4 5 6 5 7
2 2 2 2 2 2 2 5 6 7 7 7 6 7 6 4 2 6 7 6 6 6
2 2 2 3 3 4 6 7 7 8 8 8 7 8 8 7 3 5 5 5 6 6